Terminal Aerodrome Forecast
Issued by NWS La Crosse, WI

Home | Current Version | Previous Version | Text Only | Print | Product List | Glossary On
Versions: 1 2 3 4 5 6 7 8 9 10 11 12 13 14 15 16 17 18 19 20 21 22 23 24 25 26 27 28 29 30
000
FTUS43 KARX 061016 AAD
TAFRST
TAF AMD
KRST 061016Z 0610/0706 19011KT P6SM VCTS SCT015CB BKN025
      TEMPO 0611/0614 1SM +TSRA OVC005CB
     FM061500 21013KT 4SM -SHRA BR OVC012
     FM062000 34013KT 4SM -TSRA BR OVC012CB
     FM070300 35008KT P6SM SCT012=

USA.gov is the U.S. government's official web portal to all federal, state and local government web resources and services.